Location: Ffald-y-Brenin
(52.0833°N, 4.0000°W)
Time: 17:52:39
(UTC+00:00)

NOSS 2-1 (E) - Pass Details

Date: 18 February 2020
Orbit: 450 x 1753 km, 63.3° (Epoch: 03 April)

Event Time Altitude Azimuth Distance (km) Brightness Sun altitude
Exits shadow 06:04:59 23° 272° (W) 1,080 4.2 -13.1°
Maximum altitude 06:06:48 40° 328° (NNW) 772 3.8 -12.8°
Drops below altitude 10° 06:10:45 10° 39° (NE) 1,936 6.6 -12.2°
Sets 06:13:25 0° 47° (NE) 3,019 7.8 -11.8°
